Location: CNYAC Observatory
(43.2150°N, 74.9500°W)
Time: 02:17:40
(UTC-04:00)

Cosmos 1975 Rocket - Visible Passes

Search period start: 25 October 2014 00:00
Search period end: 03 November 2014 23:00
Orbit: 604 x 637 km, 82.5° (Epoch: 24 October)

Date Brightness Start Highest point End Pass type
(mag) Time Alt. Az. Time Alt. Az. Time Alt. Az.
28 Oct 6.0 06:29:28 10° NNE 06:32:16 16° ENE 06:35:04 10° ESE visible
29 Oct 5.3 06:46:29 10° NNE 06:50:19 29° ENE 06:54:09 10° SE visible
31 Oct 5.2 19:54:10 10° S 19:54:43 14° S 19:54:43 14° S visible
01 Nov 5.9 06:02:41 10° NNE 06:05:44 18° ENE 06:08:47 10° ESE visible
01 Nov 4.2 20:11:54 10° SSW 20:14:21 33° SSW 20:14:21 33° SSW visible
02 Nov 5.0 05:19:48 10° NNE 05:23:45 32° ENE 05:27:43 10° SE visible
02 Nov 4.3 17:53:26 10° SE 17:56:28 19° E 17:56:48 19° E visible
02 Nov 4.4 19:30:06 10° SW 19:34:05 36° WNW 19:34:07 36° WNW visible
03 Nov 3.7 05:37:18 10° N 05:41:41 59° E 05:46:03 10° SSE visible
03 Nov 3.6 18:10:10 10° SSE 18:14:05 35° E 18:16:39 18° NE visible
03 Nov 5.5 19:48:51 10° WSW 19:52:05 20° WNW 19:53:59 16° NW visible
